Flag for Germany Weather past 2 weeks in Weil am Rhein, Baden-Württemberg, Germany

Now
61 °F

Overcast.


Feels Like: 61 °F
Forecast: 54 / 71 °F
Wind: 2 mph from South

Location: Bale-Mulhouse

Current Time: Oct 1, 2014 at 2:58:33 AM

Latest Report: Oct 1, 2014 at 2:00 AM


Visibility: 2 mi

Pressure: 30.29 "Hg

Humidity: 97%

Dew point: 60 °F

Location of Weil am RheinLocation

Historic Weather in Weil am Rhein — Graph

°F

Weil am Rhein temperature yesterday

Maximum temperature yesterday: 71 °F (at 4:00 PM)
Minimum temperature yesterday: 59 °F (at 11:00 PM)
Average temperature yesterday: 63 °F

Past Weeks' High & Low Weather Summary

 TemperatureHumidityPressure
High78 °F (Sep 16, 4:00 PM)99% (Sep 16, 7:00 AM)30.36 "Hg (Sep 16, 7:00 AM)
Low40 °F (Sep 24, 6:00 AM)43% (Sep 28, 4:00 PM)29.80 "Hg (Sep 17, 4:00 PM)
Average60 °F82%30.11 "Hg
* Reported Sep 16 1:00 AM — Oct 1 1:00 AM, Weil am Rhein, Weather by CustomWeather, © 2014

Note: Actual official high and low records may vary slightly from our data, if they occured in-between our weather recording intervals... More about our weather records

Advertising

Weil am Rhein weather history for previous 24 hours

 ConditionsComfort  
Time TempWeatherWind HumidityBarometerVisibility
1:00 AM
Oct 1
60 °FOvercast.2 mph98%30.30 "Hg2 mi
12:00 AM60 °FFog.3 mph98%30.31 "Hg2 mi
11:00 PM
Sep 30
59 °FFog.2 mph97%30.31 "Hg2 mi
10:00 PM60 °FOvercast.2 mph95%30.30 "Hg3 mi
9:00 PM62 °FOvercast.2 mph94%30.30 "Hg4 mi
8:00 PM63 °FLight rain. Overcast.1 mph92%30.29 "Hg5 mi
7:00 PM64 °FOvercast.6 mph92%30.28 "Hg3 mi
6:00 PM67 °FSprinkles. Overcast.6 mph81%30.27 "Hg6 mi
5:00 PM71 °FOvercast.1 mph65%30.26 "Hg9 mi
4:00 PM71 °FOvercast.2 mph64%30.27 "Hg12 mi
3:00 PM70 °FOvercast.3 mph64%30.28 "Hg12 mi
2:00 PM69 °FOvercast.1 mph67%30.29 "Hg12 mi
1:00 PM68 °FOvercast.1 mph67%30.30 "Hg12 mi
12:00 PM67 °FOvercast.1 mph76%30.30 "Hg19 mi
11:00 AM65 °FOvercast.1 mph79%30.30 "Hg19 mi
10:00 AM64 °FOvercast.2 mph84%30.30 "Hg19 mi
9:00 AM61 °FOvercast.1 mph91%30.29 "Hg19 mi
8:00 AM60 °FOvercast.1 mph93%30.29 "Hg19 mi
7:00 AM59 °FOvercast.2 mph93%30.29 "Hg12 mi
6:00 AM60 °FOvercast.2 mph92%30.28 "Hg12 mi
5:00 AM60 °FOvercast.No wind92%30.28 "Hg16 mi
4:00 AM60 °FOvercast.No wind92%30.28 "Hg16 mi
3:00 AM60 °FOvercast.2 mph93%30.28 "Hg17 mi
2:00 AM59 °FOvercast.2 mph91%30.29 "Hg13 mi
Weather by CustomWeather, © 2014

See weather overviewHow to use our weather pages